Location: Newark
(43.4545°N, 5.8521°W)
Time: 08:59:45
(UTC+00:00)

ISS - Pass Details

Date: 29 November 2019
Orbit: 411 x 421 km, 51.6° (Epoch: 08 December)

Event Time Altitude Azimuth Distance (km) Brightness Sun altitude
Rises 18:09:56 0° 278° (W) 2,354 1.3 -14.3°
Reaches altitude 10° 18:12:19 10° 293° (WNW) 1,494 -0.2 -14.7°
Maximum altitude 18:15:04 23° 348° (NNW) 943 -2.0 -15.2°
Enters shadow 18:16:14 19° 19° (NNE) 1,065 -2.0 -15.4°
